Weather History for Troy, AL

Change the Weather History Date:

Tuesday, February 28, 2012

  Actual Average Record
Temperature  
Mean Temperature 65 °F 53 °F  
Max Temperature 72 °F 66 °F 81 °F (2011)
Min Temperature 57 °F 40 °F 18 °F (2002)
Degree Days  
Heating Degree Days 0 13  
Month to date heating degree days 332 427  
Since 1 July heating degree days 1610 1919  
Growing Degree Days 13 (Base 50)    
Moisture  
Dew Point 59 °F    
Average Humidity 83    
Maximum Humidity 93    
Minimum Humidity 73    
Precipitation  
Precipitation T in 0.19 in 0.60 in (2011)
Month to date precipitation 4.78 4.58  
Year to date precipitation 9.28 9.13  
Snow  
Snow 0.00 in - - ()
Month to date snowfall 0.0  
Since 1 July snowfall 0.0  
Snow Depth 0.00 in    
Sea Level Pressure  
Sea Level Pressure 30.27 in    
Wind  
Wind Speed 4 mph (ESE)    
Max Wind Speed 12 mph    
Max Gust Speed 15 mph    
Visibility 10 miles    
Events Rain    
T = Trace of Precipitation, MM = Missing Value Source: NWS Daily Summary

Daily Weather History Graph

Daily Weather History Graph

Search for Another Location

Airport:

Trip Planner

Search our weather history database for the weather conditions in past years. The results will help you decide how hot, cold, wet, or windy it might be!

Date:

Astronomy

Feb. 28, 2012 Rise Set
Actual Time 6:12 AM CST 5:40 PM CST
Civil Twilight 5:48 AM CST 6:05 PM CST
Nautical Twilight 5:20 AM CST 6:33 PM CST
Astronomical Twilight 4:51 AM CST 7:01 PM CST
Moon 9:46 AM CST No Moon Set
Length of Visible Light 12h 16m
Length of Day
11h 27m
Waxing Crescent, 38% of the Moon is Illuminated
Feb 28
Waxing Crescent
Feb 29
First Quarter
Mar 8
Full
Mar 14
Last Quarter
Mar 22
New

Hourly Weather History & Observations

Time (CST) Temp. Dew Point Humidity Pressure Visibility Wind Dir Wind Speed Gust Speed Precip Events Conditions
12:53 AM 59.0 °F 55.9 °F 90% 30.31 in 10.0 mi Calm Calm - N/A   Overcast
1:53 AM 57.9 °F 55.9 °F 93% 30.30 in 10.0 mi Calm Calm - 0.00 in Rain Light Rain
2:53 AM 57.0 °F 55.9 °F 96% 30.28 in 10.0 mi ENE 4.6 mph - 0.00 in   Overcast
3:53 AM 57.0 °F 55.0 °F 93% 30.30 in 10.0 mi Calm Calm - N/A   Overcast
4:53 AM 57.0 °F 55.0 °F 93% 30.29 in 10.0 mi ESE 3.5 mph - N/A   Overcast
5:53 AM 57.0 °F 55.0 °F 93% 30.29 in 10.0 mi East 4.6 mph - N/A   Overcast
6:24 AM 57.2 °F 55.4 °F 94% 30.31 in 10.0 mi Calm Calm - N/A   Overcast
6:53 AM 57.9 °F 55.0 °F 90% 30.30 in 10.0 mi Calm Calm - N/A   Overcast
7:45 AM 57.2 °F 55.4 °F 94% 30.31 in 10.0 mi ESE 5.8 mph - N/A   Overcast
7:53 AM 57.9 °F 55.9 °F 93% 30.31 in 10.0 mi ESE 4.6 mph - N/A   Overcast
8:10 AM 57.2 °F 55.4 °F 94% 30.33 in 10.0 mi East 3.5 mph - N/A   Overcast
8:53 AM 57.9 °F 55.9 °F 93% 30.33 in 8.0 mi ESE 4.6 mph - N/A   Overcast
9:53 AM 59.0 °F 57.0 °F 93% 30.32 in 9.0 mi ESE 5.8 mph - N/A   Overcast
10:49 AM 60.8 °F 57.2 °F 88% 30.32 in 10.0 mi Calm Calm - N/A   Overcast
10:53 AM 62.1 °F 57.9 °F 86% 30.31 in 10.0 mi Calm Calm - N/A   Overcast
11:38 AM 64.4 °F 57.2 °F 77% 30.31 in 10.0 mi Calm Calm - N/A   Overcast
11:53 AM 64.9 °F 59.0 °F 81% 30.30 in 10.0 mi Calm Calm - N/A   Overcast
12:53 PM 69.1 °F 60.1 °F 73% 30.25 in 10.0 mi SE 8.1 mph - N/A   Overcast
1:53 PM 69.1 °F 61.0 °F 75% 30.24 in 10.0 mi SSE 3.5 mph - N/A   Overcast
2:53 PM 69.1 °F 61.0 °F 75% 30.23 in 10.0 mi SE 5.8 mph - N/A   Overcast
3:04 PM 69.8 °F 60.8 °F 73% 30.23 in 10.0 mi East 4.6 mph - N/A   Overcast
3:53 PM 69.1 °F 61.0 °F 75% 30.22 in 10.0 mi ESE 8.1 mph - N/A   Overcast
4:53 PM 68.0 °F 62.1 °F 81% 30.22 in 10.0 mi ESE 4.6 mph - N/A   Overcast
5:27 PM 68.0 °F 62.6 °F 83% 30.24 in 10.0 mi ESE 5.8 mph - N/A   Overcast
5:53 PM 66.9 °F 62.1 °F 84% 30.23 in 10.0 mi SE 3.5 mph - N/A   Overcast
6:53 PM 66.9 °F 62.1 °F 84% 30.23 in 10.0 mi Calm Calm - N/A   Overcast
7:53 PM 66.0 °F 62.1 °F 87% 30.24 in 10.0 mi SE 4.6 mph - N/A   Overcast
8:53 PM 66.0 °F 62.1 °F 87% 30.24 in 10.0 mi SSE 5.8 mph - N/A   Overcast
9:53 PM 64.9 °F 62.1 °F 90% 30.23 in 10.0 mi SE 9.2 mph - N/A   Mostly Cloudy
10:53 PM 64.9 °F 62.1 °F 90% 30.22 in 10.0 mi SSE 9.2 mph - N/A   Mostly Cloudy
11:51 PM 64.4 °F 62.6 °F 94% 30.20 in 10.0 mi SE 6.9 mph - N/A   Mostly Cloudy
11:52 PM 64.0 °F 62.1 °F 93% 30.20 in 10.0 mi SE 8.1 mph - N/A   Mostly Cloudy